Regional Weather Roundup
Issued by NWS State College, PA

Home | Current Version | Previous Version | Text Only | Print | Product List | Glossary On
Versions: 1 2 3 4 5 6 7 8 9 10 11 12 13 14 15 16 17 18 19 20 21 22 23 24 25 26 27 28 29 30 31 32 33 34 35 36 37 38 39 40 41 42 43 44 45 46 47 48 49 50
000
ASUS41 KCTP 181603
RWRCTP

REGIONAL WEATHER ROUNDUP
NATIONAL WEATHER SERVICE STATE COLLEGE PA
1100 AM EST THU DEC 18 2014

Note: "fair" indicates few or no clouds below 12,000 feet with no
significant weather and/or obstructions to visibility.

* = STATION THAT DOES NOT REPORT PRECIPITATION /E.G. RAIN...SNOW...ETC/
    THUNDER OR FOG.

PAZ002>004-007>009-013>016-020>023-029>032-181700-
WESTERN PENNSYLVANIA

CITY           SKY/WX    TMP DP  RH WIND       PRES   REMARKS
ERIE           CLOUDY    32  24  72 W10       30.15F
MEADVILLE      CLOUDY    28  24  85 W8        30.13S
FRANKLIN*      CLOUDY    27  21  80 SW7       30.14S
NEW CASTLE       N/A     29  23  78 W9        30.20R
BEAVER COUNTY  CLOUDY    28  23  80 W8        30.18S
BUTLER*        CLOUDY    28  21  74 W7        30.18F
PITTSBURGH INT FLURRIES  28  22  78 W9        30.19S
PITTSBURGH     CLOUDY    28  20  71 W9        30.18S FOG
INDIANA*       CLOUDY    28  25  86 W8        30.17F
LATROBE        FLURRIES  28  23  80 W14       30.20R
WASHINGTON CO* NOT AVBL
$$

PAZ004>006-010>012-017>019-024>028-033>037-041-042-045-046-049>053-181700-
CENTRAL PENNSYLVANIA

CITY           SKY/WX    TMP DP  RH WIND       PRES   REMARKS
BRADFORD       CLOUDY    26  23  88 W9        30.03F FOG
DUBOIS         CLOUDY    25  23  92 W12       30.07F FOG     WCI  14
CLEARFIELD     CLOUDY    27  23  85 W9        30.09F
JOHNSTOWN      CLOUDY    24  19  81 W9G18     30.07F HAZE    WCI  14
ALTOONA        CLOUDY    29  21  72 NW13G20   30.11S
STATE COLLEGE  CLOUDY    30  23  74 W14       30.09S
WILLIAMSPORT   CLOUDY    36  22  56 W14       30.07S
SELINSGROVE    CLOUDY    36  22  56 W8        30.09F
FT INDIANTOWN  CLOUDY    34  24  68 SW8       30.09F
CAPITAL CITY   CLOUDY    36  23  59 W14       30.12F
HARRISBURG     PTSUNNY   35  24  64 W15       30.11F
YORK           CLOUDY    36  21  54 W13       30.12F
$$

PAZ038>040-043-044-047-048-054-055-060>062-067>071-181700-
EASTERN PENNSYLVANIA

CITY           SKY/WX    TMP DP  RH WIND       PRES   REMARKS
SCRANTON       CLOUDY    35  23  61 NW13G22   30.00F
MOUNT POCONO   CLOUDY    30  21  69 NW14G21   29.93F
ALLENTOWN      CLOUDY    38  21  50 W13G18    30.04F
QUAKERTOWN*    CLOUDY    36  23  60 NW6       30.05F
READING        CLOUDY    36  22  56 NW12      30.08S
LANCASTER      CLOUDY    33  24  69 W16       30.10F
COATESVILLE    CLOUDY    34  27  75 W17       30.08F
POTTSTOWN      CLOUDY    36  23  59 NW9       30.08F
BLUE BELL      CLOUDY    37  27  65 W7        30.06S
DOYLESTOWN     CLOUDY    36  22  56 W12G18    30.03F
WILLOW GROVE   NOT AVBL
NORTH PHILA    CLOUDY    39  21  48 W14       30.08F
PHILADELPHIA   CLOUDY    38  21  50 W14       30.10F
$$


USA.gov is the U.S. government's official web portal to all federal, state and local government web resources and services.